Simultaneous Nadir Overpasses (SNOs) Predictions

Prediction of SNOs between METOP-B and TERRA Satellite Orbit:

Table of predicted SNOs for the next 14.0 days since TLE Epoch: 7/24/2016
Index Date (METOP-B) Time (METOP-B) Lat,Lon (METOP-B) SZA (METOP-B ) Date (TERRA) Time (TERRA) Lat,Lon (TERRA) SZA (TERRA ) Distance(km) Time Diff (sec)
1 07/24/2016 07:00:01 -81.27, -58.30 115.81 07/24/2016 07:00:13 -81.28, -58.15 115.79 2.57 12
2 07/24/2016 07:50:41 81.28, 109.38 64.24 07/24/2016 07:49:39 81.28, 109.50 64.23 2.10 62
3 07/27/2016 01:44:11 80.99,-169.06 63.57 07/27/2016 01:45:24 80.68,-167.80 63.48 41.15 73
4 07/27/2016 02:34:26 -81.27, 8.12 115.19 07/27/2016 02:34:28 -81.26, 8.00 115.21 2.35 2
5 07/27/2016 03:25:05 81.28, 176.15 64.90 07/27/2016 03:23:53 81.28, 176.02 64.85 2.19 72
6 07/29/2016 21:18:11 81.27, -93.19 65.41 07/29/2016 21:19:15 81.26, -93.16 65.45 0.58 64
7 07/29/2016 22:08:51 -81.27, 74.53 114.53 07/29/2016 22:08:42 -81.27, 74.52 114.54 0.67 9
8 08/01/2016 16:52:36 81.27, -26.85 66.11 08/01/2016 16:53:29 81.27, -26.67 66.16 3.08 53
9 08/01/2016 17:43:16 -81.27, 140.92 113.83 08/01/2016 17:42:56 -81.27, 141.02 113.83 1.64 20
10 08/04/2016 12:26:59 81.27, 39.86 66.89 08/04/2016 12:27:42 81.27, 39.81 66.90 0.94 43




NCC Satellite Simultaneous Nadir Overpasses (SNOs) Prediction Service
